This demonstration page uses our WeatherBlox Daily Observations layout. Learn more.

Left ArrowRight Arrow

39.01783, -85.05884

Hourly Observations for November 10, 2021

Temp ( °F °C ) Dew Point ( °F °C ) Humidity (%) Winds ( mph kmh ) Pressure ( in mb ) Visibility ( mi km ) Precip ( " mm )
12:52 am 00:52 Mostly Cloudy 53 11.7 44 6.7 72 72 SW 3 6 30.12 1020 10 16 N/A
1:52 am 01:52 Cloudy 51 10.6 45 7.2 80 80 SW 3 6 30.13 1020 10 16 N/A
2:52 am 02:52 Cloudy 54 12.2 45 7.2 72 72 N N/A 30.13 1020 10 16 N/A
3:52 am 03:52 Partly Cloudy 52 11.1 45 7.2 77 77 N 3 6 30.13 1020 10 16 N/A
4:52 am 04:52 Mostly Clear 50 10 44 6.7 80 80 N N/A 30.12 1020 9 14 N/A
5:52 am 05:52 Clear 50 10 44 6.7 80 80 N 3 6 30.14 1021 9 14 N/A
6:52 am 06:52 Clear 51 10.6 45 7.2 80 80 NE 6 9 30.15 1021 8 13 N/A
7:52 am 07:52 Partly Cloudy with Mist and Fog 50 10 45 7.2 83 83 E 3 6 30.16 1021 6 10 N/A
8:52 am 08:52 Partly Cloudy 53 11.7 46 7.8 77 77 E 5 7 30.17 1022 7 11 N/A
9:09 am 09:09 Mostly Cloudy with Haze 54 12.2 46 7.8 75 75 E 6 9 30.18 1022 6 10 N/A
9:52 am 09:52 Mostly Cloudy 56 13.3 47 8.3 72 72 ESE 6 9 30.16 1021 7 11 N/A
10:52 am 10:52 Mostly Cloudy 58 14.4 47 8.3 67 67 SE 8 13 30.15 1021 8 13 N/A
11:52 am 11:52 Mostly Sunny 62 16.7 47 8.3 58 58 SE 8 13 30.13 1020 9 14 N/A
12:52 pm 12:52 Partly Cloudy 65 18.3 49 9.4 56 56 SSE 6 9 30.09 1019 10 16 N/A
1:52 pm 13:52 Mostly Sunny 67 19.4 49 9.4 53 53 SE 7 11 30.07 1018 10 16 N/A
2:52 pm 14:52 Partly Cloudy 66 18.9 49 9.4 54 54 S 10 17 30.05 1018 10 16 N/A
3:52 pm 15:52 Mostly Cloudy 67 19.4 49 9.4 53 53 SE 9 15 30.04 1017 10 16 N/A
4:52 pm 16:52 Cloudy 64 17.8 48 8.9 56 56 SE 9 15 30.05 1018 10 16 N/A
5:52 pm 17:52 Cloudy 60 15.6 47 8.3 62 62 SE 9 15 30.05 1018 10 16 N/A
6:52 pm 18:52 Cloudy 59 15 45 7.2 60 60 SE 8 13 30.06 1018 10 16 N/A
7:52 pm 19:52 Cloudy 58 14.4 45 7.2 62 62 ESE 10 17 30.02 1017 10 16 N/A
8:52 pm 20:52 Cloudy 57 13.9 44 6.7 62 62 SE 6 9 30.03 1017 10 16 N/A
9:52 pm 21:52 Cloudy 56 13.3 44 6.7 65 65 SE 8 13 30.01 1016 10 16 N/A
10:52 pm 22:52 Cloudy 54 12.2 45 7.2 72 72 SE 9 15 29.99 1016 10 16 N/A
11:52 pm 23:52 Mostly Cloudy 53 11.7 45 7.2 74 74 SE 6 9 29.96 1015 10 16 N/A

Powered by AerisWeather